Wadesboro, NC

3:24 AM EST on January 19, 2018 (GMT -0500)
Anson County

Weather History for KAFP - May, 2013

Change the Weather History Date:

Wednesday, May 1, 2013

  Actual Average (KCLT) Record (KCLT)
Temperature  
Mean Temperature 58 °F -  
Max Temperature 65 °F 77 °F 92 °F (1962)
Min Temperature 51 °F 54 °F 37 °F (1963)
Degree Days  
Heating Degree Days 7    
Growing Degree Days 8 (Base 50)    
Moisture  
Dew Point 56 °F    
Average Humidity 87    
Maximum Humidity 99    
Minimum Humidity 73    
Precipitation  
Precipitation 0.00 in - - ()
Sea Level Pressure  
Sea Level Pressure 30.22 in    
Wind  
Wind Speed 4 mph (NNE)    
Max Wind Speed 13 mph    
Max Gust Speed 21 mph    
Visibility 9 miles    
Events Rain    
Averages and records for this station are not official NWS values.
T = Trace of Precipitation, MM = Missing Value Source: NWS Daily Summary

Daily Weather History Graph

Daily Weather History Graph

Search for Another Location

Airport or City:

Trip Planner

Search our weather history database for the weather conditions in past years. The results will help you decide how hot, cold, wet, or windy it might be!

Date:

Astronomy

May. 01, 2013 Rise Set
Actual Time 6:29 AM EDT 8:06 PM EDT
Civil Twilight 6:02 AM EDT 8:33 PM EDT
Nautical Twilight 5:29 AM EDT 9:05 PM EDT
Astronomical Twilight 4:55 AM EDT 9:40 PM EDT
Moon 1:13 AM EDT (5/1) 12:05 PM EDT (5/1)
Length of Visible Light 14h 31m
Length of Day
13h 36m
Waning Gibbous, 59% of the Moon is Illuminated
May 1
Waning Gibbous
May 2
Last Quarter
May 9
New
May 18
First Quarter
May 25
Full

Hourly Weather History & Observations

Time (EDT) Temp. Dew Point Humidity Pressure Visibility Wind Dir Wind Speed Gust Speed Precip Events Conditions
12:15 AM 54.7 °F 52.9 °F 94% 30.16 in 10.0 mi Calm Calm - N/A   Clear
12:35 AM 54.5 °F 52.9 °F 94% 30.17 in 7.0 mi Calm Calm - N/A   Clear
12:55 AM 54.3 °F 52.7 °F 94% 30.17 in 7.0 mi Calm Calm - N/A   Clear
1:15 AM 54.7 °F 53.4 °F 96% 30.17 in 2.0 mi Calm Calm - N/A   Clear
1:35 AM 53.1 °F 52.0 °F 96% 30.17 in 1.5 mi Calm Calm - N/A   Mist
1:55 AM 52.3 °F 51.4 °F 97% 30.17 in 7.0 mi Calm Calm - N/A   Clear
2:15 AM 52.7 °F 51.8 °F 97% 30.17 in 1.5 mi Calm Calm - N/A   Mist
2:35 AM 52.5 °F 51.8 °F 97% 30.17 in 3.0 mi Calm Calm - N/A   Clear
2:55 AM 51.8 °F 51.3 °F 98% 30.16 in 1.8 mi Calm Calm - N/A   Mist
3:15 AM 51.3 °F 50.5 °F 97% 30.17 in 7.0 mi Calm Calm - N/A   Clear
3:35 AM 51.4 °F 50.7 °F 97% 30.17 in 10.0 mi Calm Calm - N/A   Scattered Clouds
3:55 AM 54.7 °F 54.3 °F 99% 30.17 in 10.0 mi North 4.6 mph - N/A   Overcast
4:15 AM 55.4 °F 54.7 °F 97% 30.17 in 10.0 mi North 3.5 mph - N/A   Overcast
4:35 AM 55.0 °F 54.3 °F 97% 30.17 in 10.0 mi North 3.5 mph - N/A   Mostly Cloudy
4:55 AM 55.6 °F 54.7 °F 97% 30.17 in 10.0 mi North 3.5 mph - N/A   Mostly Cloudy
5:15 AM 56.3 °F 55.4 °F 97% 30.18 in 10.0 mi North 4.6 mph - N/A   Overcast
5:35 AM 56.5 °F 54.9 °F 94% 30.18 in 10.0 mi North 5.8 mph - N/A   Overcast
6:15 AM 57.2 °F 54.7 °F 91% 30.20 in 10.0 mi Calm Calm - N/A   Overcast
6:35 AM 57.2 °F 55.0 °F 92% 30.20 in 10.0 mi Calm Calm - N/A   Overcast
7:15 AM 57.6 °F 55.4 °F 92% 30.20 in 10.0 mi Calm Calm - N/A   Overcast
7:35 AM 57.7 °F 55.4 °F 92% 30.20 in 10.0 mi North 4.6 mph - N/A   Overcast
7:55 AM 58.3 °F 55.8 °F 91% 30.20 in 10.0 mi North 3.5 mph - N/A   Overcast
8:15 AM 59.2 °F 56.1 °F 90% 30.21 in 10.0 mi North 6.9 mph - N/A   Overcast
8:35 AM 59.9 °F 56.3 °F 88% 30.21 in 10.0 mi North 6.9 mph - N/A   Overcast
8:55 AM 59.9 °F 55.9 °F 87% 30.21 in 10.0 mi North 8.1 mph - N/A   Overcast
9:15 AM 60.8 °F 56.1 °F 85% 30.22 in 10.0 mi North 5.8 mph - N/A   Overcast
9:35 AM 61.2 °F 56.3 °F 84% 30.23 in 10.0 mi North 5.8 mph - N/A   Overcast
9:55 AM 61.2 °F 56.3 °F 84% 30.23 in 10.0 mi North 8.1 mph - N/A   Overcast
10:15 AM 61.5 °F 57.2 °F 86% 30.24 in 10.0 mi North 6.9 mph - N/A   Overcast
10:35 AM 62.1 °F 57.4 °F 85% 30.24 in 10.0 mi North 6.9 mph - N/A   Overcast
10:55 AM 62.4 °F 57.2 °F 83% 30.25 in 10.0 mi NNE 9.2 mph - N/A   Overcast
11:15 AM 62.8 °F 56.3 °F 79% 30.26 in 10.0 mi NNE 8.1 mph - N/A   Overcast
11:35 AM 63.3 °F 56.7 °F 79% 30.26 in 10.0 mi North 9.2 mph - N/A   Light Drizzle
11:55 AM 65.5 °F 56.5 °F 73% 30.24 in 10.0 mi NNE 10.4 mph 16.1 mph N/A   Overcast
12:15 PM 64.8 °F 55.9 °F 73% 30.25 in 10.0 mi North 12.7 mph - N/A   Overcast
12:35 PM 64.8 °F 56.3 °F 74% 30.24 in 10.0 mi NNE 9.2 mph 18.4 mph N/A   Overcast
12:55 PM 63.5 °F 57.2 °F 80% 30.23 in 10.0 mi NNE 9.2 mph - N/A   Overcast
1:15 PM 64.0 °F 57.2 °F 78% 30.23 in 10.0 mi North 10.4 mph 16.1 mph N/A   Overcast
1:35 PM 64.4 °F 57.9 °F 79% 30.22 in 10.0 mi NNE 9.2 mph - N/A   Overcast
1:55 PM 64.8 °F 56.7 °F 75% 30.22 in 10.0 mi NNE 10.4 mph 16.1 mph N/A   Overcast
2:15 PM 64.6 °F 56.3 °F 74% 30.22 in 10.0 mi NNE 10.4 mph 20.7 mph N/A   Overcast
2:35 PM 64.9 °F 56.3 °F 74% 30.23 in 10.0 mi North 9.2 mph 20.7 mph N/A   Overcast
3:15 PM 64.6 °F 56.8 °F 76% 30.23 in 10.0 mi NNE 9.2 mph - N/A   Overcast
3:35 PM 64.6 °F 56.8 °F 76% 30.23 in 10.0 mi NNE 5.8 mph - N/A   Overcast
3:55 PM 64.6 °F 57.0 °F 76% 30.23 in 10.0 mi North 6.9 mph - N/A   Overcast
4:15 PM 64.4 °F 56.8 °F 76% 30.23 in 10.0 mi NNE 9.2 mph - N/A   Overcast
4:35 PM 64.4 °F 57.4 °F 78% 30.23 in 10.0 mi NNE 6.9 mph - N/A   Overcast
4:55 PM 64.6 °F 57.2 °F 77% 30.23 in 10.0 mi NNE 5.8 mph - N/A   Overcast
5:15 PM 64.6 °F 57.4 °F 77% 30.23 in 10.0 mi NNE 5.8 mph - N/A   Overcast
5:35 PM 63.7 °F 57.2 °F 79% 30.23 in 10.0 mi NNE 8.1 mph - N/A   Overcast
5:55 PM 63.5 °F 57.4 °F 80% 30.23 in 10.0 mi NNE 5.8 mph - N/A   Overcast
6:15 PM 63.1 °F 57.2 °F 81% 30.23 in 10.0 mi NNE 6.9 mph - N/A   Overcast
6:35 PM 63.0 °F 57.2 °F 81% 30.23 in 10.0 mi NNE 6.9 mph - N/A   Overcast
6:55 PM 62.6 °F 57.2 °F 82% 30.24 in 10.0 mi NNE 8.1 mph - N/A   Overcast
7:15 PM 62.2 °F 57.0 °F 83% 30.23 in 10.0 mi NNE 5.8 mph - N/A   Overcast
7:35 PM 62.1 °F 57.2 °F 84% 30.23 in 10.0 mi NNE 5.8 mph - N/A   Overcast
7:55 PM 61.5 °F 57.2 °F 86% 30.23 in 10.0 mi NNE 8.1 mph - N/A   Mostly Cloudy
8:15 PM 60.8 °F 56.7 °F 86% 30.24 in 10.0 mi NNE 5.8 mph - N/A   Clear
8:35 PM 59.9 °F 56.3 °F 88% 30.25 in 10.0 mi North 3.5 mph - N/A   Clear
8:55 PM 59.7 °F 56.5 °F 89% 30.26 in 10.0 mi NNE 3.5 mph - N/A   Mostly Cloudy
9:15 PM 60.3 °F 56.7 °F 88% 30.26 in 10.0 mi NNE 5.8 mph - N/A   Overcast
9:35 PM 60.6 °F 56.5 °F 86% 30.27 in 10.0 mi NNE 9.2 mph - N/A   Overcast
9:55 PM 60.4 °F 56.5 °F 87% 30.27 in 10.0 mi NNE 9.2 mph - N/A   Overcast
10:35 PM 59.2 °F 56.7 °F 91% 30.27 in 5.0 mi NNE 6.9 mph - N/A Rain Light Rain
10:55 PM 59.0 °F 56.8 °F 93% 30.28 in 7.0 mi NNE 6.9 mph - N/A   Overcast
11:15 PM 58.6 °F 57.2 °F 95% 30.27 in 5.0 mi NNE 5.8 mph - N/A   Drizzle
11:35 PM 58.5 °F 57.4 °F 96% 30.27 in 7.0 mi NNE 6.9 mph - N/A   Light Drizzle
11:55 PM 58.6 °F 57.6 °F 96% 30.27 in 5.0 mi NNE 4.6 mph - N/A Rain Rain